This is the latest recevied weather packets stored in our database for station/object N1MCJ. If no packets are shown the sender has not sent any weather packets the latest 10 day(s).
| Time | Temp. | Humidity | Pressure | Rain* | Wind** | Luminosity | Snow |
|---|---|---|---|---|---|---|---|
| 1777443096 | 8.89° C | 80% | 1009.3 hPa | 0 mm | - | 0 W/m² | - |
| 1777442196 | 8.89° C | 81% | 1009.6 hPa | 0 mm | - | 0 W/m² | - |
| 1777441290 | 8.89° C | 79% | 1009.6 hPa | 0 mm | - | 0 W/m² | - |
| 1777440387 | 8.89° C | 78% | 1010 hPa | 0 mm | - | 0 W/m² | - |
| 1777439482 | 8.89° C | 78% | 1010.3 hPa | 0 mm | - | 0 W/m² | - |
| 1777438582 | 9.44° C | 76% | 1010.4 hPa | 0 mm | - | 0 W/m² | - |
| 1777437683 | 9.44° C | 75% | 1010.2 hPa | 0 mm | - | 0 W/m² | - |
| 1777436778 | 10° C | 74% | 1010.3 hPa | 0 mm | - | 0 W/m² | - |
| 1777435874 | 10° C | 74% | 1009.9 hPa | 0 mm | - | 0 W/m² | - |
| 1777434971 | 10° C | 73% | 1010 hPa | 0 mm | - | 0 W/m² | - |
| 1777434071 | 10° C | 73% | 1010.1 hPa | 0 mm | - | 0 W/m² | - |
| 1777433170 | 10° C | 72% | 1009.8 hPa | 0 mm | - | 0 W/m² | - |
| 1777432270 | 10° C | 71% | 1009.8 hPa | 0 mm | - | 0 W/m² | - |
| 1777431367 | 10° C | 70% | 1009.5 hPa | 0 mm | - | 0 W/m² | - |
| 1777430461 | 10° C | 70% | 1009.9 hPa | 0 mm | - | 0 W/m² | - |
| 1777429561 | 10.56° C | 71% | 1010.2 hPa | 0 mm | - | 0 W/m² | - |
| 1777428661 | 10.56° C | 69% | 1010 hPa | 0 mm | - | 0 W/m² | - |
| 1777427760 | 10.56° C | 68% | 1010.1 hPa | 0 mm | - | 0 W/m² | - |
| 1777426857 | 10.56° C | 68% | 1010.1 hPa | 0 mm | - | 0 W/m² | - |
| 1777425957 | 10.56° C | 67% | 1010.2 hPa | 0 mm | - | 0 W/m² | - |
| 1777425056 | 11.11° C | 69% | 1010.3 hPa | 0 mm | - | 0 W/m² | - |
| 1777424154 | 11.67° C | 72% | 1010 hPa | 0 mm | - | 0 W/m² | - |
| 1777423249 | 11.67° C | 75% | 1009.6 hPa | 0 mm | - | 0 W/m² | - |
| 1777422347 | 12.22° C | 72% | 1009.4 hPa | 0 mm | - | 0 W/m² | - |
| 1777421444 | 12.78° C | 68% | 1009.5 hPa | 0 mm | - | 0 W/m² | - |
* Rain latest hour (hover to see other rain measurements)
** Current wind speed in m/s (hover to see current wind gust speed)